H1 CPF 2 NER 2025 12 12 9 346 01 glonass140 H2 1903001 9140 44299 2025 12 12 0 0 0 2025 12 15 23 45 0 900 1 1 0 0 0 1 H9 10 0 61021 0.00000 0 11084356.403 -22896344.351 1979039.924 10 0 61021 900.00000 0 10984739.661 -22994621.190 -1224575.646 10 0 61021 1800.00000 0 10730312.418 -22721513.001 -4404411.960 10 0 61021 2700.00000 0 10374535.126 -22064212.153 -7498708.121 10 0 61021 3600.00000 0 9973235.873 -21022919.124 -10447336.142 10 0 61021 4500.00000 0 9582046.831 -19610988.473 -13192972.200 10 0 61021 5400.00000 0 9253858.430 -17854538.714 -15682214.855 10 0 61021 6300.00000 0 9036399.518 -15791541.075 -17866628.014 10 0 61021 7200.00000 0 8970046.500 -13470424.175 -19703687.969 10 0 61021 8100.00000 0 9085954.864 -10948251.921 -21157615.711 10 0 61021 9000.00000 0 9404592.881 -8288549.923 -22200078.121 10 0 61021 9900.00000 0 9934740.344 -5558870.488 -22810744.123 10 0 61021 10800.00000 0 10672995.521 -2828197.199 -22977684.841 10 0 61021 11700.00000 0 11603812.077 -164296.791 -22697609.795 10 0 61021 12600.00000 0 12700065.298 2368871.676 -21975934.322 10 0 61021 13500.00000 0 13924124.564 4713582.790 -20826676.699 10 0 61021 14400.00000 0 15229387.557 6820505.233 -19272186.692 10 0 61021 15300.00000 0 16562212.035 8650507.060 -17342710.598 10 0 61021 16200.00000 0 17864164.037 10176031.117 -15075801.030 10 0 61021 17100.00000 0 19074487.842 11381984.006 -12515582.862 10 0 61021 18000.00000 0 20132693.304 12266102.370 -9711889.736 10 0 61021 18900.00000 0 20981151.164 12838782.533 -6719288.204 10 0 61021 19800.00000 0 21567586.365 13122382.123 -3596008.992 10 0 61021 20700.00000 0 21847363.677 13150024.753 -402806.869 10 0 61021 21600.00000 0 21785468.768 12963959.866 2798227.884 10 0 61021 22500.00000 0 21358100.822 12613548.670 5944882.499 10 0 61021 23400.00000 0 20553809.363 12152962.759 8976034.808 10 0 61021 24300.00000 0 19374127.389 11638694.014 11832842.257 10 0 61021 25200.00000 0 17833674.269 11126981.958 14459883.387 10 0 61021 26100.00000 0 15959724.253 10671267.910 16806229.551 10 0 61021 27000.00000 0 13791258.849 10319783.638 18826426.423 10 0 61021 27900.00000 0 11377542.782 10113376.120 20481366.880 10 0 61021 28800.00000 0 8776282.892 10083659.713 21739039.244 10 0 61021 29700.00000 0 6051446.367 10251572.957 22575137.449 10 0 61021 30600.00000 0 3270828.410 10626400.126 22973522.450 10 0 61021 31500.00000 0 503469.501 11205298.144 22926526.953 10 0 61021 32400.00000 0 -2182971.785 11973348.431 22435098.409 10 0 61021 33300.00000 0 -4724782.840 12904131.518 21508778.033 10 0 61021 34200.00000 0 -7064593.144 13960800.631 20165516.436 10 0 61021 35100.00000 0 -9153504.571 15097609.839 18431329.269 10 0 61021 36000.00000 0 -10952868.957 16261833.512 16339799.014 10 0 61021 36900.00000 0 -12435640.297 17395997.515 13931431.826 10 0 61021 37800.00000 0 -13587246.426 18440329.425 11252880.968 10 0 61021 38700.00000 0 -14405944.726 19335325.692 8356050.901 10 0 61021 39600.00000 0 -14902647.626 20024328.394 5297098.513 10 0 61021 40500.00000 0 -15100225.720 20456003.447 2135350.154 10 0 61021 41400.00000 0 -15032318.056 20586615.842 -1067845.084 10 0 61021 42300.00000 0 -14741699.858 20382005.591 -4250303.766 10 0 61021 43200.00000 0 -14278276.635 19819180.279 -7350215.157 10 0 61021 44100.00000 0 -13696789.458 18887456.016 -10307343.269 10 0 61021 45000.00000 0 -13054328.553 17589097.361 -13064200.167 10 0 61021 45900.00000 0 -12407760.520 15939427.812 -15567167.308 10 0 61021 46800.00000 0 -11811178.312 13966404.637 -17767542.707 10 0 61021 47700.00000 0 -11313482.166 11709674.401 -19622493.086 10 0 61021 48600.00000 0 -10956194.222 9219147.373 -21095892.207 10 0 61021 49500.00000 0 -10771599.692 6553149.172 -22159028.786 10 0 61021 50400.00000 0 -10781293.653 3776225.902 -22791169.993 10 0 61021 51300.00000 0 -10995195.410 956693.466 -22979969.419 10 0 61021 52200.00000 0 -11411072.576 -1835967.443 -22721711.380 10 0 61021 53100.00000 0 -12014595.554 -4533762.653 -22021386.622 10 0 61021 54000.00000 0 -12779920.583 -7072772.127 -20892597.731 10 0 61021 54900.00000 0 -13670777.182 -9395566.506 -19357295.805 10 0 61021 55800.00000 0 -14642014.405 -11453352.234 -17445353.320 10 0 61021 56700.00000 0 -15641540.744 -13207756.289 -15193981.275 10 0 61021 57600.00000 0 -16612575.772 -14632176.639 -12647001.885 10 0 61021 58500.00000 0 -17496118.155 -15712642.741 -9853991.063 10 0 61021 59400.00000 0 -18233525.374 -16448151.147 -6869307.658 10 0 61021 60300.00000 0 -18769095.629 -16850463.384 -3751028.799 10 0 61021 61200.00000 0 -19052542.185 -16943376.154 -559812.752 10 0 61021 62100.00000 0 -19041255.031 -16761496.159 2642287.784 10 0 61021 63000.00000 0 -18702253.804 -16348572.902 5793038.048 10 0 61021 63900.00000 0 -18013749.101 -15755461.378 8831234.870 10 0 61021 64800.00000 0 -16966246.147 -15037802.090 11697897.382 10 0 61021 65700.00000 0 -15563144.131 -14253517.435 14337411.335 10 0 61021 66600.00000 0 -13820806.042 -13460230.920 16698604.693 10 0 61021 67500.00000 0 -11768096.025 -12712718.415 18735733.969 10 0 61021 68400.00000 0 -9445403.540 -12060498.828 20409362.804 10 0 61021 69300.00000 0 -6903194.945 -11545665.257 21687116.629 10 0 61021 70200.00000 0 -4200152.447 -11201047.195 22544299.876 10 0 61021 71100.00000 0 -1400977.238 -11048780.177 22964364.904 10 0 61021 72000.00000 0 1426052.800 -11099342.140 22939224.574 10 0 61021 72900.00000 0 4211670.631 -11351096.192 22469403.290 10 0 61021 73800.00000 0 6888246.900 -11790358.462 21564024.109 10 0 61021 74700.00000 0 9392348.601 -12391988.027 20240632.360 10 0 61021 75600.00000 0 11667124.985 -13120474.224 18524859.038 10 0 61021 76500.00000 0 13664423.162 -13931476.175 16449929.963 10 0 61021 77400.00000 0 15346546.754 -14773750.472 14056029.474 10 0 61021 78300.00000 0 16687585.554 -15591386.751 11389530.066 10 0 61021 79200.00000 0 17674261.637 -16326257.873 8502101.927 10 0 61021 80100.00000 0 18306257.219 -16920582.133 5449718.759 10 0 61021 81000.00000 0 18596010.971 -17319489.915 2291578.434 10 0 61021 81900.00000 0 18567991.609 -17473486.618 -911041.132 10 0 61021 82800.00000 0 18257479.400 -17340707.615 -4095968.897 10 0 61021 83700.00000 0 17708906.960 -16888869.410 -7201347.383 10 0 61021 84600.00000 0 16973829.303 -16096833.645 -10166835.552 10 0 61021 85500.00000 0 16108608.844 -14955716.657 -12934784.078 10 0 61022 0.00000 0 15171913.293 -13469496.451 -15451359.578 10 0 61022 900.00000 0 14222131.733 -11655089.008 -17667596.789 10 0 61022 1800.00000 0 13314819.512 -9541891.078 -19540354.489 10 0 61022 2700.00000 0 12500278.399 -7170804.362 -21033160.714 10 0 61022 3600.00000 0 11821375.701 -4592782.307 -22116927.155 10 0 61022 4500.00000 0 11311694.153 -1866958.237 -22770519.982 10 0 61022 5400.00000 0 10994091.011 941568.033 -22981175.604 10 0 61022 6300.00000 0 10879727.346 3764193.731 -22744753.105 10 0 61022 7200.00000 0 10967608.730 6531424.800 -22065818.236 10 0 61022 8100.00000 0 11244656.813 9175527.463 -20957557.120 10 0 61022 9000.00000 0 11686308.865 11633109.664 -19441521.090 10 0 61022 9900.00000 0 12257619.986 13847525.099 -17547207.377 10 0 61022 10800.00000 0 12914821.291 15770999.944 -15311483.625 10 0 61022 11700.00000 0 13607267.984 17366393.939 -12777867.329 10 0 61022 12600.00000 0 14279694.572 18608522.736 -9995674.301 10 0 61022 13500.00000 0 14874681.284 19484986.944 -7019053.019 10 0 61022 14400.00000 0 15335226.716 19996474.136 -3905924.089 10 0 61022 15300.00000 0 15607317.110 20156522.329 -716846.164 10 0 61022 16200.00000 0 15642382.860 19990756.360 2486168.842 10 0 61022 17100.00000 0 15399537.668 19535630.832 5640867.394 10 0 61022 18000.00000 0 14847505.145 18836734.155 8685968.425 10 0 61022 18900.00000 0 13966151.082 17946726.648 11562355.681 10 0 61022 19800.00000 0 12747556.454 16923000.843 14214224.806 10 0 61022 20700.00000 0 11196585.797 15825163.540 16590162.764 10 0 61022 21600.00000 0 9330926.905 14712446.189 18644138.991 10 0 61022 22500.00000 0 7180599.987 13641152.688 20336389.645 10 0 61022 23400.00000 0 4786956.534 12662251.606 21634178.673 10 0 61022 24300.00000 0 2201209.241 11819213.319 22512422.049 10 0 61022 25200.00000 0 -517446.470 11146181.883 22954164.179 10 0 61022 26100.00000 0 -3304042.090 10666557.271 22950898.296 10 0 61022 27000.00000 0 -6090286.211 10392046.342 22502725.508 10 0 61022 27900.00000 0 -8807154.905 10322221.362 21618349.971 10 0 61022 28800.00000 0 -11387516.307 10444603.897 20314910.482 10 0 61022 29700.00000 0 -13768682.003 10735270.144 18617651.648 10 0 61022 30600.00000 0 -15894780.764 11159952.214 16559440.441 10 0 61022 31500.00000 0 -17718857.273 11675589.320 14180136.818 10 0 61022 32400.00000 0 -19204609.621 12232264.066 11525829.669 10 0 61022 33300.00000 0 -20327694.002 12775442.867 8647951.900 10 0 61022 34200.00000 0 -21076542.711 13248426.614 5602290.945 10 0 61022 35100.00000 0 -21452661.589 13594908.584 2447913.124 10 0 61022 36000.00000 0 -21470394.582 13761531.775 -753977.823 10 0 61022 36900.00000 0 -21156165.341 13700337.457 -3941226.132 10 0 61022 37800.00000 0 -20547227.637 13371000.989 -7051930.338 10 0 61022 38700.00000 0 -19689977.122 12742759.530 -10025646.939 10 0 61022 39600.00000 0 -18637895.485 11795949.075 -12804567.625 10 0 61022 40500.00000 0 -17449213.613 10523084.462 -15334646.760 10 0 61022 41400.00000 0 -16184392.344 8929435.172 -17566656.794 10 0 61022 42300.00000 0 -14903527.084 7033070.921 -19457150.604 10 0 61022 43200.00000 0 -13663785.830 4864373.340 -20969311.724 10 0 61022 44100.00000 0 -12516988.664 2465032.461 -22073675.678 10 0 61022 45000.00000 0 -11507430.828 -113431.503 -22748708.125 10 0 61022 45900.00000 0 -10670041.102 -2811560.720 -22981228.420 10 0 61022 46800.00000 0 -10028953.080 -5564188.762 -22766670.175 10 0 61022 47700.00000 0 -9596549.440 -8302914.033 -22109173.550 10 0 61022 48600.00000 0 -9373019.334 -10958715.140 -21021507.276 10 0 61022 49500.00000 0 -9346447.312 -13464599.736 -19524821.647 10 0 61022 50400.00000 0 -9493429.718 -15758176.667 -17648237.082 10 0 61022 51300.00000 0 -9780192.108 -17784044.411 -15428276.032 10 0 61022 52200.00000 0 -10164159.962 -19495896.326 -12908149.220 10 0 61022 53100.00000 0 -10595915.618 -20858254.993 -10136910.147 10 0 61022 54000.00000 0 -11021457.945 -21847763.556 -7168494.600 10 0 61022 54900.00000 0 -11384668.222 -22453980.591 -4060664.289 10 0 61022 55800.00000 0 -11629876.976 -22679646.045 -873875.834 10 0 61022 56700.00000 0 -11704422.203 -22540408.219 2329902.084 10 0 61022 57600.00000 0 -11561089.840 -22064024.580 5488399.622 10 0 61022 58500.00000 0 -11160332.538 -21289071.449 8540260.307 10 0 61022 59400.00000 0 -10472172.333 -20263218.310 11426234.988 10 0 61022 60300.00000 0 -9477706.489 -19041140.643 14090331.651 10 0 61022 61200.00000 0 -8170152.677 -17682160.160 16480898.616 10 0 61022 62100.00000 0 -6555389.312 -16247712.358 18551620.428 10 0 61022 63000.00000 0 -4651968.057 -14798748.064 20262407.710 10 0 61022 63900.00000 0 -2490597.707 -13393177.874 21580164.588 10 0 61022 64800.00000 0 -113120.526 -12083466.084 22479419.888 10 0 61022 65700.00000 0 2428976.929 -10914473.958 22942811.009 10 0 61022 66600.00000 0 5076457.340 -9921641.503 22961412.126 10 0 61022 67500.00000 0 7764552.906 -9129582.524 22534901.247 10 0 61022 68400.00000 0 10425421.454 -8551150.494 21671563.465 10 0 61022 69300.00000 0 12990737.788 -8187013.226 20388130.552 10 0 61022 70200.00000 0 15394314.196 -8025753.274 18709459.888 10 0 61022 71100.00000 0 17574642.682 -8044489.272 16668058.437 10 0 61022 72000.00000 0 19477254.509 -8209991.880 14303460.279 10 0 61022 72900.00000 0 21056799.907 -8480247.442 11661468.844 10 0 61022 73800.00000 0 22278762.111 -8806403.773 8793277.544 10 0 61022 74700.00000 0 23120734.628 -9135016.396 5754484.981 10 0 61022 75600.00000 0 23573208.627 -9410500.743 2604023.051 10 0 61022 76500.00000 0 23639837.489 -9577686.905 -596981.803 10 0 61022 77400.00000 0 23337167.276 -9584368.907 -3786392.363 10 0 61022 78300.00000 0 22693844.199 -9383740.313 -6902266.472 10 0 61022 79200.00000 0 21749332.139 -8936612.499 -9884061.383 10 0 61022 80100.00000 0 20552193.899 -8213320.768 -12673812.832 10 0 61022 81000.00000 0 19158008.338 -7195236.489 -15217265.508 10 0 61022 81900.00000 0 17627010.901 -5875819.847 -17464932.509 10 0 61022 82800.00000 0 16021556.805 -4261167.134 -19373062.737 10 0 61022 83700.00000 0 14403513.600 -2370027.710 -20904497.062 10 0 61022 84600.00000 0 12831692.755 -233288.102 -22029396.324 10 0 61022 85500.00000 0 11359428.285 2107056.844 -22725826.798 10 0 61023 0.00000 0 10032404.214 4599404.018 -22980191.530 10 0 61023 900.00000 0 8886821.390 7184453.337 -22787499.067 10 0 61023 1800.00000 0 7947982.176 9797448.154 -22151463.910 10 0 61023 2700.00000 0 7229349.853 12370656.557 -21084436.961 10 0 61023 3600.00000 0 6732123.615 14835987.349 -19607166.660 10 0 61023 4500.00000 0 6445345.741 17127633.165 -17748395.391 10 0 61023 5400.00000 0 6346535.858 19184630.417 -15544298.819 10 0 61023 6300.00000 0 6402824.710 20953229.201 -13037778.913 10 0 61023 7200.00000 0 6572538.639 22388974.166 -10277624.520 10 0 61023 8100.00000 0 6807166.788 23458409.385 -7317556.062 10 0 61023 9000.00000 0 7053626.730 24140336.156 -4215173.377 10 0 61023 9900.00000 0 7256731.494 24426571.427 -1030827.865 10 0 61023 10800.00000 0 7361752.466 24322175.841 2173558.356 10 0 61023 11700.00000 0 7316968.603 23845142.776 5335702.488 10 0 61023 12600.00000 0 7076093.183 23025562.633 8394175.937 10 0 61023 13500.00000 0 6600474.710 21904298.770 11289599.784 10 0 61023 14400.00000 0 5860978.398 20531231.951 13965797.248 10 0 61023 15300.00000 0 4839468.459 18963148.120 16370880.623 10 0 61023 16200.00000 0 3529828.451 17261359.003 18458251.875 10 0 61023 17100.00000 0 1938476.514 15489155.701 20187498.079 10 0 61023 18000.00000 0 84353.609 13709202.021 21525165.177 10 0 61023 18900.00000 0 -2001615.178 11980976.169 22445396.127 10 0 61023 19800.00000 0 -4277564.336 10358366.961 22930422.203 10 0 61023 20700.00000 0 -6692193.906 8887523.836 22970898.976 10 0 61023 21600.00000 0 -9186676.023 7605049.096 22566081.346 10 0 61023 22500.00000 0 -11696883.987 6536606.384 21723834.834 10 0 61023 23400.00000 0 -14155852.494 5696002.170 20460483.152 10 0 61023 24300.00000 0 -16496368.237 5084777.346 18800494.906 10 0 61023 25200.00000 0 -18653584.567 4692325.041 16776015.003 10 0 61023 26100.00000 0 -20567552.679 4496529.017 14426249.157 10 0 61023 27000.00000 0 -22185564.974 4464895.419 11796712.500 10 0 61023 27900.00000 0 -23464213.673 4556130.195 8938355.848 10 0 61023 28800.00000 0 -24371079.183 4722095.770 5906585.724 10 0 61023 29700.00000 0 -24885977.774 4910064.597 2760196.303 10 0 61023 30600.00000 0 -25001716.243 5065174.518 -439766.533 10 0 61023 31500.00000 0 -24724321.590 5132982.096 -3631187.286 10 0 61023 32400.00000 0 -24072735.644 5062005.679 -6752086.152 10 0 61023 33300.00000 0 -23077986.932 4806150.072 -9741824.027 10 0 61023 34200.00000 0 -21781874.142 4326909.393 -12542283.383 10 0 61023 35100.00000 0 -20235216.059 3595253.875 -15099001.682 10 0 61023 36000.00000 0 -18495741.197 2593119.502 -17362234.834 10 0 61023 36900.00000 0 -16625705.567 1314436.033 -19287929.563 10 0 61023 37800.00000 0 -14689338.474 -234351.593 -20838585.442 10 0 61023 38700.00000 0 -12750223.408 -2034292.250 -21983989.545 10 0 61023 39600.00000 0 -10868723.863 -4054469.333 -22701809.183 10 0 61023 40500.00000 0 -9099561.881 -6253052.191 -22978031.046 10 0 61023 41400.00000 0 -7489650.624 -8578815.731 -22807238.012 10 0 61023 42300.00000 0 -6076271.613 -10973065.851 -22192718.066 10 0 61023 43200.00000 0 -4885672.589 -13371891.198 -21146402.975 10 0 61023 44100.00000 0 -3932144.305 -15708647.870 -19688637.684 10 0 61023 45000.00000 0 -3217614.289 -17916573.664 -17847784.644 10 0 61023 45900.00000 0 -2731773.793 -19931422.786 -15659670.610 10 0 61023 46800.00000 0 -2452731.538 -21694010.915 -13166886.537 10 0 61023 47700.00000 0 -2348165.594 -23152563.994 -10417954.268 10 0 61023 48600.00000 0 -2376923.483 -24264772.294 -7466376.468 10 0 61023 49500.00000 0 -2491001.593 -24999463.681 -4369588.731 10 0 61023 50400.00000 0 -2637818.843 -25337825.994 -1187834.890 10 0 61023 51300.00000 0 -2762687.065 -25274127.621 2017011.788 10 0 61023 52200.00000 0 -2811372.276 -24815906.634 5182657.801 10 0 61023 53100.00000 0 -2732637.376 -23983621.349 8247604.637 10 0 61023 54000.00000 0 -2480657.757 -22809778.009 11152345.767 10 0 61023 54900.00000 0 -2017207.040 -21337573.258 13840521.743 10 0 61023 55800.00000 0 -1313520.158 -19619109.353 16260010.833 10 0 61023 56700.00000 0 -351754.899 -17713257.792 18363934.286 10 0 61023 57600.00000 0 874009.825 -15683261.264 20111557.299 10 0 61023 58500.00000 0 2357281.124 -13594174.432 21469069.064 10 0 61023 59400.00000 0 4079185.643 -11510250.143 22410227.831 10 0 61023 60300.00000 0 6009028.488 -9492379.447 22916859.618 10 0 61023 61200.00000 0 8105354.812 -7595691.135 22979201.949 10 0 61023 62100.00000 0 10317470.686 -5867409.470 22596086.877 10 0 61023 63000.00000 0 12587360.945 -4345057.860 21774960.319 10 0 61023 63900.00000 0 14851925.404 -3055081.818 20531737.622 10 0 61023 64800.00000 0 17045441.711 -2011947.144 18890498.028 10 0 61023 65700.00000 0 19102153.675 -1217749.672 16883023.531 10 0 61023 66600.00000 0 20958878.459 -662351.884 14548190.334 10 0 61023 67500.00000 0 22557525.039 -324039.867 11931223.799 10 0 61023 68400.00000 0 23847419.585 -170672.564 9082830.366 10 0 61023 69300.00000 0 24787341.047 -161274.728 6058222.343 10 0 61023 70200.00000 0 25347181.917 -248006.396 2916053.731 10 0 61023 71100.00000 0 25509164.427 -378425.724 -282712.900 10 0 61023 72000.00000 0 25268560.716 -497949.551 -3475986.727 10 0 61023 72900.00000 0 24633886.135 -552407.404 -6601753.382 10 0 61023 73800.00000 0 23626556.852 -490580.542 -9599280.485 10 0 61023 74700.00000 0 22280025.352 -266617.900 -12410300.243 10 0 61023 75600.00000 0 20638429.476 157774.105 -14980145.706 10 0 61023 76500.00000 0 18754811.063 811461.710 -17258818.176 10 0 61023 77400.00000 0 16688978.499 1712414.159 -19201964.525 10 0 61023 78300.00000 0 14505102.397 2866697.855 -20771745.089 10 0 61023 79200.00000 0 12269144.897 4267978.302 -21937574.956 10 0 61023 80100.00000 0 10046230.025 5897552.446 -22676723.977 10 0 61023 81000.00000 0 7898064.983 7724911.669 -22974763.671 10 0 61023 81900.00000 0 5880519.968 9708813.309 -22825852.148 10 0 61023 82800.00000 0 4041467.529 11798817.076 -22232851.313 10 0 61023 83700.00000 0 2418971.378 13937223.109 -21207273.871 10 0 61023 84600.00000 0 1039899.920 16061331.293 -19769060.900 10 0 61023 85500.00000 0 -80978.132 18105927.818 -17946194.105 10 0 61024 0.00000 0 -941379.009 20005894.903 -15774150.279 10 0 61024 900.00000 0 -1551355.329 21698835.445 -13295207.265 10 0 61024 1800.00000 0 -1932620.154 23127599.880 -10557617.965 10 0 61024 2700.00000 0 -2117375.064 24242612.462 -7614664.803 10 0 61024 3600.00000 0 -2146692.003 25003896.521 -4523616.314 10 0 61024 4500.00000 0 -2068519.262 25382714.562 -1344605.707 10 0 61024 5400.00000 0 -1935397.378 25362754.131 1860545.838 10 0 61024 6300.00000 0 -1801982.964 24940809.907 5029537.433 10 0 61024 7200.00000 0 -1722486.559 24126933.783 8100803.962 10 0 61024 8100.00000 0 -1748133.943 22944047.329 11014714.499 10 0 61024 9000.00000 0 -1924759.087 21427033.670 13714729.997 10 0 61024 9900.00000 0 -2290630.969 19621347.682 16148497.554 10 0 61024 10800.00000 0 -2874606.319 17581203.421 18268860.306 10 0 61024 11700.00000 0 -3694686.254 15367415.127 20034763.913 10 0 61024 12600.00000 0 -4757037.623 13044982.182 21412042.854 10 0 61024 13500.00000 0 -6055520.230 10680518.616 22374072.378 10 0 61024 14400.00000 0 -7571739.994 8339633.664 22902274.589 10 0 61024 15300.00000 0 -9275626.155 6084371.507 22986469.905 10 0 61024 16200.00000 0 -11126509.066 3970815.431 22625068.003 10 0 61024 17100.00000 0 -13074654.413 2046954.536 21825095.175 10 0 61024 18000.00000 0 -15063190.940 350900.169 20602057.832 10 0 61024 18900.00000 0 -17030352.478 -1090475.283 18979644.740 10 0 61024 19800.00000 0 -18911942.101 -2262422.023 16989273.309 10 0 61024 20700.00000 0 -20643916.760 -3162683.276 14669488.051 10 0 61024 21600.00000 0 -22164985.599 -3801338.095 12065221.939 10 0 61024 22500.00000 0 -23419114.167 -4200123.880 9226934.039 10 0 61024 23400.00000 0 -24357830.249 -4391267.559 6209639.191 10 0 61024 24300.00000 0 -24942234.921 -4415874.894 3071847.793 10 0 61024 25200.00000 0 -25144634.280 -4321945.970 -125564.391 10 0 61024 26100.00000 0 -24949722.886 -4162100.738 -3320534.722 10 0 61024 27000.00000 0 -24355268.455 -3991110.915 -6451017.700 10 0 61024 27900.00000 0 -23372268.098 -3863342.913 -9456191.000 10 0 61024 28800.00000 0 -22024568.566 -3830220.449 -12277639.725 10 0 61024 29700.00000 0 -20347965.431 -3937814.898 -14860495.458 10 0 61024 30600.00000 0 -18388818.090 -4224666.177 -17154507.535 10 0 61024 31500.00000 0 -16202237.898 -4719927.385 -19115025.237 10 0 61024 32400.00000 0 -13849924.690 -5441912.781 -20703871.449 10 0 61024 33300.00000 0 -11397741.717 -6397111.755 -21890090.510 10 0 61024 34200.00000 0 -8913130.046 -7579711.752 -22650555.465 10 0 61024 35100.00000 0 -6462470.122 -8971651.680 -22970422.712 10 0 61024 36000.00000 0 -4108500.385 -10543204.933 -22843425.070 10 0 61024 36900.00000 0 -1907900.405 -12254068.786 -22271997.319 10 0 61024 37800.00000 0 90860.932 -14054915.487 -21267231.600 10 0 61024 38700.00000 0 1849322.843 -15889340.838 -19848663.262 10 0 61024 39600.00000 0 3340401.157 -17696129.031 -18043891.089 10 0 61024 40500.00000 0 4549271.513 -19411739.063 -15888039.101 10 0 61024 41400.00000 0 5473731.302 -20972908.395 -13423070.257 10 0 61024 42300.00000 0 6124026.363 -22319264.369 -10696965.498 10 0 61024 43200.00000 0 6522151.208 -23395833.349 -7762784.291 10 0 61024 44100.00000 0 6700653.777 -24155341.746 -4677625.399 10 0 61024 45000.00000 0 6700996.815 -24560211.795 -1501508.731 10 0 61024 45900.00000 0 6571546.702 -24584167.884 1703799.217 10 0 61024 46800.00000 0 6365276.369 -24213385.793 4875992.654 10 0 61024 47700.00000 0 6137280.865 -23447136.620 7953442.209 10 0 61024 48600.00000 0 5942211.881 -22297898.661 10876394.766 10 0 61024 49500.00000 0 5831740.656 -20790933.006 13588133.686 10 0 61024 50400.00000 0 5852157.106 -18963341.218 16036076.709 10 0 61024 51300.00000 0 6042206.900 -16862645.091 18172790.444 10 0 61024 52200.00000 0 6431257.757 -14544948.257 19956902.330 10 0 61024 53100.00000 0 7037872.143 -12072756.593 21353893.176 10 0 61024 54000.00000 0 7868846.217 -9512548.137 22336755.985 10 0 61024 54900.00000 0 8918755.315 -6932193.145 22886509.407 10 0 61024 55800.00000 0 10170025.063 -4398330.755 22992556.931 10 0 61024 56700.00000 0 11593525.442 -1973810.047 22652885.783 10 0 61024 57600.00000 0 13149663.483 284699.666 21874102.309 10 0 61024 58500.00000 0 14789929.696 2328831.601 20671303.457 10 0 61024 59400.00000 0 16458834.631 4120290.768 19067786.786 10 0 61024 60300.00000 0 18096155.764 5632197.675 17094604.203 10 0 61024 61200.00000 0 19639401.931 6849951.922 14789967.397 10 0 61024 62100.00000 0 21026393.289 7771580.823 12198515.609 10 0 61024 63000.00000 0 22197849.677 8407559.432 9370458.938 10 0 61024 63900.00000 0 23099879.465 8780110.197 6360612.916 10 0 61024 64800.00000 0 23686264.759 8922012.111 3227342.224 10 0 61024 65700.00000 0 23920446.860 8874969.758 31433.473 10 0 61024 66600.00000 0 23777128.092 8687611.204 -3165081.415 10 0 61024 67500.00000 0 23243421.840 8413199.411 -6300128.478 10 0 61024 68400.00000 0 22319501.427 8107154.122 -9312798.151 10 0 61024 69300.00000 0 21018719.352 7824489.328 -12144531.093 10 0 61024 70200.00000 0 19367190.625 7617275.201 -14740259.964 10 0 61024 71100.00000 0 17402856.466 7532232.485 -17049484.517 10 0 61024 72000.00000 0 15174066.511 7608561.867 -19027258.634 10 0 61024 72900.00000 0 12737737.935 7876100.988 -20635069.756 10 0 61024 73800.00000 0 10157167.677 8353887.987 -21841593.291 10 0 61024 74700.00000 0 7499588.572 9049193.278 -22623307.085 10 0 61024 75600.00000 0 4833570.885 9957061.563 -22964953.811 10 0 61024 76500.00000 0 2226377.235 11060384.477 -22859842.106 10 0 61024 77400.00000 0 -258619.163 12330501.885 -22309980.413 10 0 61024 78300.00000 0 -2564345.654 13728307.471 -21326040.700 10 0 61024 79200.00000 0 -4642170.619 15205812.896 -19927152.537 10 0 61024 80100.00000 0 -6453684.436 16708105.312 -18140531.277 10 0 61024 81000.00000 0 -7972047.288 18175616.208 -16000947.395 10 0 61024 81900.00000 0 -9182848.323 19546606.254 -13550047.153 10 0 61024 82800.00000 0 -10084441.294 20759761.399 -10835537.880 10 0 61024 83700.00000 0 -10687743.926 21756790.591 -7910253.916 10 0 61024 84600.00000 0 -11015510.974 22484915.279 -4831121.788 10 0 61024 85500.00000 0 -11101113.205 22899145.295 -1658045.410 99